User: anonymous   Login
Location: Unspecified
(0.0000°N, 0.0000°E)
Time: 08:00:13
(UTC+00:00)
Language:

COSMOS 2496 - Orbit

View from above orbital plane
View from above orbital plane
View from above satellite
View from above satellite

Ground track
Ground track

The orbit data is extracted from the following two-line orbital elements,

1 39761U 14028A   20223.78546798 +.00000006 +00000-0 -30036-4 0  9997
2 39761 082.4471 006.9277 0020038 055.3897 304.9069 12.42876488282187
Epoch (UTC): 10 August 2020 18:51:04
Eccentricity: 0.0020038
inclination: 82.4471°
perigee height: 1478 km
apogee height: 1510 km
right ascension of ascending node: 6.9277°
argument of perigee: 55.3897°
revolutions per day: 12.42876488
mean anomaly at epoch: 304.9069°
orbit number at epoch: 28218

The dashed part of the orbit path shows where the satellite is in the earth's shadow,  

DLR